Location: Stoke Bliss
(52.2667°N, 2.5167°W)
Time: 02:47:20
(UTC+00:00)

ISS - Visible Passes

Search period start: 15 May 2021 00:00
Search period end: 25 May 2021 00:00
Orbit: 417 x 422 km, 51.6° (Epoch: 14 May)

Date Brightness Start Highest point End Pass type
(mag) Time Alt. Az. Time Alt. Az. Time Alt. Az.
15 May -3.9 00:02:20 10° W 00:05:43 81° S 00:09:06 10° E visible
15 May -3.8 01:39:07 10° W 01:42:28 60° SSW 01:45:48 10° ESE visible
15 May -2.4 03:16:18 10° W 03:18:50 20° SW 03:21:23 10° SSE visible
15 May -3.0 21:38:43 10° SW 21:41:43 30° SSE 21:44:44 10° E visible
15 May -3.9 23:14:54 10° WSW 23:18:16 75° S 23:21:39 10° E visible
16 May -3.9 00:51:40 10° W 00:55:02 71° S 00:58:25 10° ESE visible
16 May -2.8 02:28:38 10° W 02:31:33 27° SSW 02:34:28 10° SSE visible
16 May -2.5 20:51:43 10° SSW 20:54:24 22° SSE 20:57:07 10° E visible
16 May -3.9 22:27:30 10° WSW 22:30:50 64° SSE 22:34:11 10° E visible
17 May -3.9 00:04:13 10° W 00:07:36 79° S 00:10:59 10° E visible
17 May -3.3 01:41:04 10° W 01:44:13 36° SSW 01:47:21 10° SE visible
17 May -3.7 21:40:08 10° WSW 21:43:25 52° SSE 21:46:44 10° E visible
17 May -3.9 23:16:46 10° W 23:20:08 82° S 23:22:52 15° E visible
18 May -2.8 00:53:34 10° W 00:55:46 33° WSW 00:55:46 33° WSW visible
18 May -3.3 20:52:51 10° SW 20:56:02 40° SSE 20:59:14 10° E visible
18 May -3.9 22:29:18 10° W 22:32:41 81° S 22:36:03 10° E visible
19 May -3.8 00:06:05 10° W 00:09:22 59° SSW 00:09:22 59° SSW visible
19 May -3.9 21:41:51 10° WSW 21:45:13 75° S 21:48:36 10° E visible
19 May -3.9 23:18:37 10° W 23:22:00 71° S 23:23:11 37° ESE visible
20 May -1.4 00:55:35 10° W 00:56:06 13° W 00:56:06 13° W visible
20 May -3.8 20:54:26 10° WSW 20:57:46 65° SSE 21:01:07 10° E visible
20 May -3.9 22:31:10 10° W 22:34:32 79° S 22:37:05 16° E visible
21 May -2.5 00:08:00 10° W 00:10:01 27° WSW 00:10:01 27° WSW visible
21 May -3.8 21:43:41 10° W 21:47:04 82° S 21:50:27 10° E visible
21 May -3.5 23:20:30 10° W 23:23:46 47° SSW 23:23:57 46° S visible
22 May -3.8 20:56:13 10° W 20:59:35 81° S 21:02:58 10° E visible
22 May -3.7 22:32:59 10° W 22:36:20 59° SSW 22:37:56 27° SE visible
23 May -1.4 00:10:11 10° W 00:10:51 13° WSW 00:10:51 13° WSW visible
23 May -3.8 21:45:31 10° W 21:48:53 71° S 21:51:56 12° ESE visible
23 May -2.5 23:22:28 10° W 23:24:52 26° SW 23:24:52 26° SW visible
24 May -3.8 20:58:01 10° W 21:01:24 79° S 21:04:47 10° E visible
24 May -3.0 22:34:53 10° W 22:38:01 36° SSW 22:38:54 30° S visible
